Terminal Aerodrome Forecast
Issued by NWS Central Illinois

Home | Current Version | Previous Version | Text Only | Print | Product List | Glossary On
Versions: 1 2 3 4 5 6 7 8 9 10 11 12 13 14 15 16 17 18 19 20 21 22 23 24 25 26 27 28 29
000
FTUS43 KILX 072346
TAFPIA
TAF
KPIA 072346Z 0800/0824 05006KT 5SM HZ SCT035 BKN050
      TEMPO 0800/0803 6SM HZ
     FM080300 06004KT 5SM HZ SCT040 BKN200
     FM080700 06003KT 4SM BR SCT025 BKN150
     FM081300 06005KT 4SM -SHRA BR SCT012 BKN020
     FM081800 10006KT 4SM -RA BR BKN009 OVC015=

USA.gov is the U.S. government's official web portal to all federal, state and local government web resources and services.